This demonstration page uses our WeatherBlox Daily Observations layout. Learn more.

Left ArrowRight Arrow

44.31136, -96.79839

Hourly Observations for May 31, 2022

Temp ( °F °C ) Dew Point ( °F °C ) Humidity (%) Winds ( mph kmh ) Pressure ( in mb ) Visibility ( mi km ) Precip ( " mm )
12:04 am 00:04 Cloudy 57 14 54 12 88 88 SW 20 31 29.39 995 10 16 0.00 0.00
12:20 am 00:20 Cloudy 57 14 55 13 94 94 SW 15 24 29.39 995 10 16 0.00 0.00
12:56 am 00:56 Cloudy with Light Rain 58 14.4 58 14.4 100 100 WSW 23 37 29.42 996 8 13 0.00 0.00
1:28 am 01:28 Cloudy 57 14 57 14 100 100 W 25 41 29.40 995 10 16 0.00 0.00
1:56 am 01:56 Cloudy 58 14.4 57 13.9 97 97 W 21 33 29.46 998 10 16 0.00 0.00
2:24 am 02:24 Cloudy with Light Rain 57 14 57 14 100 100 W 23 37 29.46 997 8 13 0.00 0.00
2:56 am 02:56 Cloudy 57 13.9 56 13.3 96 96 W 22 35 29.53 1000 10 16 0.00 0.00
3:18 am 03:18 Mostly Cloudy 57 14 55 13 94 94 WNW 17 28 29.50 999 10 16 0.00 0.00
3:41 am 03:41 Cloudy 55 13 55 13 100 100 WNW 17 28 29.50 999 10 16 0.00 0.00
3:49 am 03:49 Mostly Cloudy 55 13 55 13 100 100 WNW 18 30 29.51 999 10 16 0.00 0.00
3:56 am 03:56 Mostly Cloudy 56 13.3 56 13.3 100 100 WNW 18 30 29.56 1001 10 16 0.00 0.00
4:03 am 04:03 Mostly Cloudy 55 13 55 13 100 100 W 16 26 29.53 1000 10 16 0.00 0.00
4:56 am 04:56 Cloudy 57 13.9 56 13.3 96 96 W 15 24 29.60 1003 10 16 0.00 0.00
5:56 am 05:56 Cloudy 58 14.4 54 12.2 87 87 W 16 26 29.65 1004 10 16 0.00 0.00
6:56 am 06:56 Cloudy 57 13.9 54 12.2 90 90 W 15 24 29.70 1006 10 16 0.00 0.00
7:41 am 07:41 Cloudy 57 14 54 12 88 88 W 16 26 29.68 1005 10 16 0.00 0.00
7:56 am 07:56 Cloudy 59 15 54 12.2 83 83 W 16 26 29.73 1007 10 16 0.00 0.00
8:46 am 08:46 Mostly Cloudy 63 17 52 11 68 68 W 22 35 29.67 1005 10 16 0.00 0.00
8:56 am 08:56 Mostly Cloudy 62 16.7 51 10.6 67 67 WNW 20 31 29.74 1007 10 16 0.00 0.00
9:56 am 09:56 Cloudy 60 15.6 53 11.7 78 78 W 20 31 29.78 1009 10 16 0.00 0.00
10:56 am 10:56 Cloudy 62 16.7 51 10.6 67 67 WNW 17 28 29.81 1010 10 16 0.00 0.00
11:15 am 11:15 Cloudy 61 16 50 10 68 68 WNW 21 33 29.76 1008 10 16 0.00 0.00
11:56 am 11:56 Cloudy 60 15.6 50 10 70 70 NW 16 26 29.85 1011 10 16 0.00 0.00
12:56 pm 12:56 Cloudy 59 15 50 10 72 72 W 16 26 29.88 1012 10 16 0.00 0.00
1:51 pm 13:51 Cloudy 59 15 50 10 72 72 NW 22 35 29.86 1011 10 16 0.00 0.00
1:56 pm 13:56 Cloudy 58 14.4 50 10 75 75 NW 17 28 29.91 1013 10 16 0.00 0.00
2:14 pm 14:14 Cloudy 61 16 50 10 68 68 WNW 18 30 29.85 1011 10 16 0.00 0.00
2:37 pm 14:37 Cloudy 59 15 48 9 68 68 WNW 20 31 29.88 1012 10 16 0.00 0.00
2:56 pm 14:56 Cloudy 59 15 49 9.4 69 69 WNW 15 24 29.94 1014 10 16 0.00 0.00
3:04 pm 15:04 Cloudy 61 16 48 9 63 63 WNW 18 30 29.88 1012 10 16 0.00 0.00
3:56 pm 15:56 Cloudy 61 16.1 49 9.4 65 65 NW 16 26 29.97 1015 10 16 0.00 0.00
4:26 pm 16:26 Cloudy 61 16 48 9 63 63 WNW 16 26 29.91 1013 10 16 0.00 0.00
4:56 pm 16:56 Cloudy 58 14.4 48 8.9 70 70 NW 21 33 30.00 1016 10 16 0.00 0.00
5:22 pm 17:22 Cloudy 57 14 48 9 72 72 NW 17 28 29.96 1014 10 16 0.00 0.00
5:56 pm 17:56 Cloudy 57 13.9 47 8.3 69 69 WNW 20 31 30.01 1016 10 16 0.00 0.00
6:56 pm 18:56 Cloudy 56 13.3 46 7.8 70 70 NW 20 31 30.03 1017 10 16 0.00 0.00
7:56 pm 19:56 Cloudy 54 12.2 46 7.8 75 75 WNW 13 20 30.06 1018 10 16 0.00 0.00
8:56 pm 20:56 Mostly Cloudy 53 11.7 47 8.3 80 80 WNW 8 13 30.07 1018 10 16 0.00 0.00
9:56 pm 21:56 Partly Cloudy 52 11.1 47 8.3 83 83 W 6 9 30.09 1019 10 16 0.00 0.00
10:56 pm 22:56 Clear 49 9.4 46 7.8 90 90 SSW 6 9 30.11 1020 10 16 0.00 0.00
11:56 pm 23:56 Clear 47 8.3 46 7.8 97 97 SSW 5 7 30.12 1020 10 16 0.00 0.00

Powered by AerisWeather